Kahului, HI

4:03 AM HST on June 24, 2017 (GMT -1000)
Kahului

Weather History for PHOG - March, 2012

Change the Weather History Date:

Saturday, March 31, 2012

  Actual Average Record
Temperature  
Mean Temperature 77 °F 74 °F  
Max Temperature 84 °F 82 °F 93 °F (2017)
Min Temperature 70 °F 65 °F 56 °F (1972)
Cooling Degree Days 12 9  
Month to date cooling degree days 239 245  
Year to date cooling degree days 712 654  
Growing Degree Days 26 (Base 50)    
Moisture  
Dew Point 60 °F    
Average Humidity 58    
Maximum Humidity 73    
Minimum Humidity 42    
Precipitation  
Precipitation 0.00 in 0.08 in 1.18 in (1996)
Month to date precipitation 2.61 2.45  
Year to date precipitation 2.69 7.21  
Snow  
Snow 0.00 in - - ()
Month to date snowfall 0.0  
Since 1 July snowfall 0.0  
Snow Depth 0.00 in    
Sea Level Pressure  
Sea Level Pressure 30.08 in    
Wind  
Wind Speed 22 mph (ENE)    
Max Wind Speed 30 mph    
Max Gust Speed 41 mph    
Visibility 10 miles    
Events      
T = Trace of Precipitation, MM = Missing Value Source: NWS Daily Summary

Daily Weather History Graph

Daily Weather History Graph

Search for Another Location

Airport or City:

Trip Planner

Search our weather history database for the weather conditions in past years. The results will help you decide how hot, cold, wet, or windy it might be!

Date:

Astronomy

Mar. 31, 2012 Rise Set
Actual Time 6:19 AM HST 6:40 PM HST
Civil Twilight 5:56 AM HST 7:02 PM HST
Nautical Twilight 5:31 AM HST 7:28 PM HST
Astronomical Twilight 5:04 AM HST 7:54 PM HST
Moon 1:04 PM HST (3/31) 1:37 AM HST (3/31)
Length of Visible Light 13h 05m
Length of Day
12h 21m
First Quarter, 61% of the Moon is Illuminated
Mar 31
First Quarter
Apr 6
Full
Apr 13
Last Quarter
Apr 20
New
Apr 28
First Quarter

Hourly Weather History & Observations

Time (HST) Temp. Heat Index Dew Point Humidity Pressure Visibility Wind Dir Wind Speed Gust Speed Precip Events Conditions
12:54 AM 71.1 °F - 57.9 °F 63% 30.11 in 10.0 mi NE 27.6 mph 38.0 mph N/A   Clear
1:54 AM 71.1 °F - 57.9 °F 63% 30.09 in 10.0 mi ENE 19.6 mph 28.8 mph N/A   Clear
2:54 AM 70.0 °F - 59.0 °F 68% 30.07 in 10.0 mi ENE 27.6 mph 39.1 mph N/A   Clear
3:54 AM 70.0 °F - 59.0 °F 68% 30.07 in 10.0 mi ENE 16.1 mph 28.8 mph N/A   Clear
4:54 AM 70.0 °F - 59.0 °F 68% 30.07 in 10.0 mi ENE 19.6 mph 27.6 mph N/A   Clear
5:54 AM 70.0 °F - 60.1 °F 71% 30.08 in 10.0 mi ENE 21.9 mph 28.8 mph N/A   Clear
6:54 AM 71.1 °F - 59.0 °F 66% 30.10 in 10.0 mi ENE 16.1 mph 29.9 mph N/A   Clear
7:54 AM 73.0 °F - 60.1 °F 64% 30.10 in 10.0 mi ENE 21.9 mph 32.2 mph N/A   Clear
8:54 AM 77.0 °F - 57.9 °F 52% 30.11 in 10.0 mi ENE 25.3 mph 33.4 mph N/A   Partly Cloudy
9:54 AM 79.0 °F - 59.0 °F 50% 30.10 in 10.0 mi ENE 21.9 mph 34.5 mph N/A   Partly Cloudy
10:54 AM 81.0 °F 80.8 °F 55.9 °F 42% 30.09 in 10.0 mi East 20.7 mph 36.8 mph N/A   Clear
11:54 AM 82.0 °F 82.0 °F 57.9 °F 44% 30.07 in 10.0 mi ENE 20.7 mph 28.8 mph N/A   Partly Cloudy
12:54 PM 82.9 °F 82.8 °F 59.0 °F 44% 30.04 in 10.0 mi ENE 21.9 mph 33.4 mph N/A   Partly Cloudy
1:54 PM 82.9 °F 83.2 °F 60.1 °F 46% 30.01 in 10.0 mi ENE 20.7 mph 33.4 mph N/A   Partly Cloudy
2:54 PM 82.0 °F 82.7 °F 61.0 °F 49% 30.01 in 10.0 mi ENE 23.0 mph 35.7 mph N/A   Partly Cloudy
3:54 PM 81.0 °F 81.7 °F 61.0 °F 50% 30.01 in 10.0 mi East 23.0 mph 33.4 mph N/A   Partly Cloudy
4:54 PM 79.0 °F - 62.1 °F 56% 30.03 in 10.0 mi East 17.3 mph 28.8 mph N/A   Partly Cloudy
5:54 PM 75.9 °F - 62.1 °F 62% 30.06 in 10.0 mi East 16.1 mph 26.5 mph N/A   Scattered Clouds
6:54 PM 75.0 °F - 61.0 °F 62% 30.08 in 10.0 mi East 11.5 mph 19.6 mph N/A   Partly Cloudy
7:54 PM 73.0 °F - 62.1 °F 68% 30.12 in 10.0 mi East 10.4 mph - N/A   Partly Cloudy
8:54 PM 71.1 °F - 62.1 °F 73% 30.14 in 10.0 mi ENE 8.1 mph - N/A   Partly Cloudy
9:54 PM 71.1 °F - 61.0 °F 70% 30.15 in 10.0 mi ENE 6.9 mph - N/A   Partly Cloudy
10:54 PM 69.1 °F - 61.0 °F 75% 30.15 in 10.0 mi East 5.8 mph - N/A   Clear
11:54 PM 66.0 °F - 60.1 °F 81% 30.14 in 10.0 mi Calm Calm - N/A   Clear